Weather in Khadyzhensk

Russia / Krasnodar Krai     44°25′22″N   39°32′14″E
temp.,
°C
wind,
m/s
gust,
m/s
humid.,
%
clouds,
%
prec.,
mm/h
press.,
hPa
HPBL,
m
17 october, sun
sun1700:00+13ssw119595 0.0 101410
03:00+12sse11965 0.0 101410
06:00+12ssw119692 0.1 101410
09:00+15e1183100 0.1 1014191
12:00+20nnw2165100 0.0 1013663
15:00+20nnw2259100 0.0 1013911
18:00+15nne117491 0.1 101410
21:00+13sse118383 0.1 101411
18 october, mon
mon1800:00+13wnw1186100 0.0 101512
03:00+11w119132 0.0 101510
06:00+10w0090100 0.0 101610
09:00+14nnw116544 0.0 1017253
12:00+18nnw224698 0.0 1016868
15:00+19nw234466 0.0 10161067
18:00+13wnw11635 0.0 101710
21:00+12ssw116397 0.0 101816
19 october, tue
tue1900:00+12nw1270100 0.1 101965
03:00+11wnw1375100 0.1 1019104
06:00+10wsw118487 0.2 102017
09:00+12wnw147187 0.2 1020405
12:00+16w4852100 0.0 10191734
15:00+16wsw594515 0.1 10192069
18:00+11wsw4972100 0.1 1020661
21:00+9w2892100 6.7 1022498
20 october, wed
wed2000:00+7w269150 0.6 1023231
03:00+6w249211 0.6 102584
06:00+7nw269177 0.1 1027473
09:00+8nw24741 0.1 1028736
12:00+10nw33455 0.0 10281339
15:00+11nnw334183 0.0 10281458
18:00+6nnw11605 0.0 102910
21:00+4se00702 0.0 103010
21 october, thu
thu2100:00+3sse117563 0.0 102910
03:00+2se1176100 0.0 102910
06:00+2sse11795 0.0 102910
09:00+8se12625 0.0 1028219
12:00+14sse02505 0.0 1027940
15:00+16wnw12460 0.0 10241127
18:00+9s00765 0.0 102510
21:00+7s11865 0.0 102410